Location: Charlottesville
(38.0290°N, 78.4770°W)
Time: 06:05:15
(UTC-04:00)

Vanguard 2 - Visible Passes

Search period start: 23 July 2018 00:00
Search period end: 02 August 2018 00:00
Orbit: 553 x 2939 km, 32.9° (Epoch: 22 July)

Date Brightness Start Highest point End Pass type
(mag) Time Alt. Az. Time Alt. Az. Time Alt. Az.
23 Jul 10.3 00:19:49 10° W 00:36:01 44° SSW 00:38:21 42° SSW visible
23 Jul 11.4 02:37:18 10° W 02:39:41 13° WSW 02:39:41 13° WSW visible
23 Jul 10.4 22:25:39 10° W 22:42:24 63° SSW 22:53:08 28° SE visible
24 Jul 10.6 00:38:33 10° W 00:53:42 36° SW 00:54:29 36° SSW visible
24 Jul 10.4 20:33:00 10° W 20:47:55 73° S 21:05:50 10° ESE visible
24 Jul 10.4 22:43:58 10° W 23:00:29 57° SSW 23:09:19 33° SE visible
25 Jul 10.9 00:57:37 10° W 01:10:40 29° SW 01:10:40 29° SW visible
25 Jul 10.4 20:51:10 10° W 21:06:11 71° S 21:24:00 10° ESE visible
25 Jul 10.5 23:02:21 10° W 23:18:28 49° SSW 23:25:33 36° SSE visible
26 Jul 11.2 01:17:15 10° W 01:26:55 21° SW 01:26:55 21° SW visible
26 Jul 10.4 21:09:21 10° W 21:24:26 66° SSW 21:40:29 14° ESE visible
26 Jul 10.6 23:20:52 10° W 23:36:20 42° SSW 23:41:50 35° S visible
27 Jul 11.4 01:38:05 10° WSW 01:43:12 14° WSW 01:43:12 14° WSW visible
27 Jul 10.5 21:27:34 10° W 21:42:36 60° SSW 21:56:49 18° SE visible
27 Jul 10.8 23:39:38 10° W 23:54:06 34° SW 23:58:11 31° SSW visible
28 Jul 10.6 21:45:50 10° W 22:00:42 53° SSW 22:13:12 22° SE visible
28 Jul 11.0 23:58:46 10° W 00:11:49 27° SW 00:14:34 26° SSW visible
29 Jul 10.7 22:04:13 10° W 22:18:43 46° SSW 22:29:39 24° SSE visible
30 Jul 11.2 00:18:37 10° W 00:29:29 20° SW 00:31:02 20° SW visible
30 Jul 10.9 22:22:45 10° W 22:36:40 38° SSW 22:46:10 24° SSE visible
31 Jul 11.5 00:40:02 10° WSW 00:47:08 14° SW 00:47:33 14° SW visible
31 Jul 10.5 20:30:14 10° W 20:43:08 56° SSW 21:00:14 10° SE visible
31 Jul 11.1 22:41:35 10° W 22:54:33 31° SW 23:02:45 22° S visible
01 Aug 10.6 20:48:30 10° W 21:01:15 49° SSW 21:17:50 10° SE visible
01 Aug 11.2 23:00:54 10° W 23:12:24 24° SW 23:19:24 19° S visible
